Current Weather Network in the world 
cooperate with our weather  network
  
 
country list  
Weather now
15-08-20  0:03
Molinella (BO)  (Italy)  
22.8  C.     .;

 

If you want to participate in our meteorological network, fill in form data, and send us an  e_mail and we will activate your weather station in your country. You would to send your weather reporting, one or more times a day, through our website .. for examples insert
       
manual meteorological reports today      
Weather reporting today :
Romania: stazione meteo: Amara
23:42
PAESE CITTA'DATAORAT C.(m)VENTO (Km/h)PAPREC.STATO
AustriaInnsbruck14-08-2022:20 UTC170.51 1018
AustriaLinz14-08-2022:20 UTC191.03 1015
AustriaVienna/Wien14-08-2022:20 UTC190.51 1013
AustriaSalisburgo/Salzsbu14-08-2022:20 UTC182.06 1016
Belarus/BielorussiaMinsk14-08-2022:00 UTC101 ENE1019
Belarus/BielorussiaRiga14-08-2022:20 UTC130 N1016
BulgariaSofia14-08-2022:30 UTC191.54 SSE
Belgium/BelgioBruxelles14-08-2022:20 UTC190.51 S1015
Croatia/CroaziaZagabria/Zagreb14-08-2022:00 UTC181.03 1013pioggia
Croatia/CroaziaDubrovnik14-08-2022:00 UTC253.6 ESE1012
Croatia/CroaziaSpalato/Split14-08-2022:00 UTC261.54 NW1011
Croatia/CroaziaPula14-08-2022:00 UTC232.06 NNE1011
Croatia/CroaziaZara/Zadar14-08-2022:00 UTC221.03 1011
Croazia/CroatiaFiume/Rijeka14-08-2022:00 UTC222.57 W1012temporale
Czech RepublicPraga14-08-2022:12 UTC181.54 N1014
SlovakiaBratislava14-08-2022:00 UTC212.06 NE1013
BosniaSarajevo14-08-2022:00 UTC161.03 1015
Denmark/DanimarcaAlborg14-08-2022:20 UTC162.06 NW1015
Denmark/DanimarcaEsbjerg14-08-2022:20 UTC161.54 N1015
Denmark/DanimarcaCopenaghen/Koeben.14-08-2022:20 UTC181.03 W1015
Finland/FinlandiaHelsinky14-08-2015:50 UTC-23.09 NE1021
Finland/FinlandiaOulu14-08-2022:20 UTC173.09 SW1009
France/FranciaParigi/Paris14-08-2022:00 UTC201.54 W1016
France/FranciaNizza/Nices14-08-2022:00 UTC263.09 ENE1011
France/FranciaTrasburgo14-08-2022:00 UTC191.54 SSW1015
France/FranciaMontepellier14-08-2022:00 UTC251.03 1012
France/FranciaLione/Lyon14-08-2022:00 UTC232.57 NNW1015
France/FranciaLilla14-08-2022:00 UTC201.03 S1015
France/FranciaBrest14-08-2022:00 UTC131.03 SW1017
France/FranciaBordeaux14-08-2022:00 UTC203.09 N1015
France/FranciaMarsiglia/Marsei14-08-2022:00 UTC252.06 NW1013
Germany/GermaniaAmburgo-fink14-08-2022:20 UTC223.6 NE1013
Germany/GermaniaAmburgo-fuhl14-08-2022:20 UTC202.06 NNE1013
Germany/GermaniaBerlin-sch14-08-2022:20 UTC212.57 ENE1013
Germany/GermaniaBerlino-tegel14-08-2022:20 UTC221.54 ENE1013
Germany/GermaniaMonaco14-08-2022:20 UTC172.06 W1016
Germany/GermaniaNonimberga14-08-2022:20 UTC190.51 1015
Germany/GermaniaFrancoforte14-08-2022:20 UTC191.03 SSW1015
Germany/GermaniaStoccarda14-08-2022:20 UTC191.54 WSW1016
Germany/GermaniaHannover14-08-2022:20 UTC201.03 WSW1014
Germany/GermaniaDusseldorf14-08-2022:20 UTC222.57 SE1014
ISReykjavik14-08-2022:00 UTC112.57 SSE1007
Netherlands/Paesi baAmsterdam14-08-2022:25 UTC213.09 W1014
Netherlands/Paesi BaRotterdam14-08-2022:25 UTC201.54 W1014
Netherlands/Paesi BaGroninga/Groningen14-08-2022:25 UTC192.06 SW1014
Netherlands/Paesi baMaastrich14-08-2022:25 UTC211.54 NW1014
Norway-NorvegiaOslo14-08-2022:20 UTC173.09 SSW1014
Norway-NorvegiaTrondheim14-08-2022:20 UTC131.54 ESE1014
Norway-NorvegiaBergen14-08-2022:20 UTC134.12 NNW1017
Norway-NorvegiaBodo14-08-2021:50 UTC128.75 SW1008pioggia
Poland/PoloniaVarsavia/Warsawa14-08-2022:00 UTC214.63 SE1015
Portugal-PortogalloLisbona/Lisboa14-08-2022:00 UTC192.57 NW1018
Portugal-PortogalloFaro-airport14-08-2022:00 UTC226.69 NNW1016
Portugal-PortogalloPorto Santo14-08-2022:00 UTC225.14 N1022
Portugal-PortogalloPorto/Pedras Rubra14-08-2022:00 UTC160 N1017
RUSMosca14-08-2022:00 UTC113 NW1017
Russian-RussiaSt.Peterburg14-08-2022:00 UTC162 SSW1015
RusVladivostok14-08-2022:00 UTC213 S1002
RomaniaBucarest14-08-2022:00 UTC244.12 E1013
Spain/SpagnaMadrid/Barajas14-08-2022:00 UTC282.57 WSW1014
Spain/SpagnaMadrid/Cuatro14-08-2022:00 UTC223.6 WSW1015
Spain/SpagnaBarcellona14-08-2022:00 UTC251.54 SSW1014
Spain/SpagnaLa Couruna14-08-2022:00 UTC170.51 1017
Spain/SpagnaAlmeria14-08-2022:00 UTC240.51 1014
Spain/SpagnaValencia14-08-2022:00 UTC281.03 1014
SpainIbiza14-08-2022:00 UTC262.57 SSE1014
Sweden-SveziaStockholm/Stoccolm14-08-2022:20 UTC181.03 SW1014
Sweden-SveziaGoteborg14-08-2010:20 UTC-20 N1012
Sweden-SveziaMalmo14-08-2022:20 UTC152.06 E1015
Sweden-SveziaKiruna14-08-2022:20 UTC112.06 WSW1005pioggia
Sweden-SveziaSundsvall14-08-2022:20 UTC141.03 NNW1013
Sweden-SveziaJongkoping14-08-2022:20 UTC131.03 W1016
Sweden-SveziaJongkoping14-08-2022:20 UTC131.03 W1016
Sweden-SveziaJongkoping14-08-2022:20 UTC131.03 W1016
Sweden-SveziaJongkoping14-08-2022:20 UTC131.03 W1016
Sweden-SveziaJongkoping14-08-2022:20 UTC131.03 W1016
Sweden-SveziaJongkoping14-08-2022:20 UTC131.03 W1016
Ukraine/UcrainaLvov/l'viv14-08-2022:00 UTC184 E1016
Ukraine/UcrainaKijev14-08-2022:00 UTC100 N1019
United KingdomBelfast-airport14-08-2022:20 UTC140 N1017
United KingdomBirmingham14-08-2022:20 UTC174.12 NE1016
United KingdomEdimburgo/Edimburg14-08-2022:20 UTC152.06 NE1019
United KingdomLeeds14-08-2022:20 UTC145.14 N1018
United KingdomLiverpool14-08-2022:20 UTC193.6 ENE1016
United KingdomBristol14-08-2022:20 UTC171.54 WNW1016
United KingdomPlymouth14-08-2015:20 UTC66.17 NW1018
GBLondra14-08-2022:20 UTC192.06 N1015
UngheriaBudapest14-08-2022:00 UTC181.03 1013
United KingdomManchester-airport14-08-2022:20 UTC175.14 NE1017
yugoslaviaBelgrado/Beograd14-08-2022:00 UTC233.6 SSE1013temporale
14-08-2022:20 UTC241.54 SE1012
 

 .

. .
. . . .

informazioni e contatti

www.meteorete.it
by.A.Santagostini C.2001-2016
P.I.05250380960

Partecipa alla rete meteorologica

  
 Cerca Meteo  
Stazioni meteo AM
Satellite e Radar
Rete in GooGle Maps
stazioni meteorete
Schermo solare Meteorete e Davis
stazioni automatiche
stazioni AM
rete internazionale
stazioni estere
archivio articoli
citta fredde

i nostri amici
negozio meteorete
dati storici stazioni
clima e riscaldamento globale
progetto meteo nelle scuole
temperatura Media in Italia 1951-2000
galleria di immagini
noleggio webcam
servizi meteo gratuiti
meteorologia per le scuole elementari